Weather in Tivolino

Russia / Tver Oblast     57°14′47″N   37°37′05″E
temp.,
°C
wind,
m/s
gust,
m/s
humid.,
%
clouds,
%
prec.,
mm/h
press.,
hPa
HPBL,
m
14 august, sun
sun1400:00+18wnw1173100 0.0 102111
03:00+16nnw007799 0.0 102111
06:00+16ne117940 0.0 102211
09:00+23sse015880 0.0 1021339
12:00+27ese114543 0.0 10211491
15:00+28ese113912 0.0 10202180
18:00+27ne124729 0.0 1019114
21:00+22ene116097 0.0 102013
15 august, mon
mon1500:00+21se116299 0.0 102013
03:00+20ese2366100 0.0 102151
06:00+20se126899 0.0 102134
09:00+22ese236285 0.0 1021203
12:00+27sse454372 0.0 10221439
15:00+28se343540 0.0 10212425
18:00+25ese374996 0.0 1021310
21:00+21ese355910 0.0 102172
16 august, tue
tue1600:00+18ese37665 0.0 1022132
03:00+17ese39655 0.0 1023155
06:00+16ese387098 0.0 1023162
09:00+23se4852100 0.0 1023474
12:00+27se563842 0.0 10221612
15:00+28se453397 0.0 10212015
18:00+27se364246 0.0 1021470
21:00+21ese345925 0.0 102146
17 august, wed
wed1700:00+18ese36705 0.0 1021108
03:00+17se237338 0.0 102140
06:00+17ese257255 0.0 102199
09:00+23ese35528 0.0 1021475
12:00+28ese45365 0.0 10201855
15:00+29se33355 0.0 10192031
18:00+27ese24446 0.0 1018289
21:00+21e35602 0.0 101982
18 august, thu
thu1800:00+19e39675 0.0 1019174
03:00+17ese35755 0.0 101991
06:00+16ese23785 0.0 101959
09:00+23se23535 0.0 1019399
12:00+28se33385 0.0 10191403
15:00+29e233454 0.0 10182356
18:00+26e364361 0.0 1018336
21:00+21e34565 0.0 101852